This is the latest recevied weather packets stored in our database for station/object K7KAZ. If no packets are shown the sender has not sent any weather packets the latest 10 day(s).
| Time | Temp. | Humidity | Pressure | Rain* | Wind** | Luminosity | Snow |
|---|---|---|---|---|---|---|---|
| 1777656265 | 24.44° C | 33% | 1015.7 hPa | 0 mm | - | 803 W/m² | - |
| 1777655960 | 24.44° C | 33% | 1015.3 hPa | 0 mm | - | 810 W/m² | - |
| 1777655656 | 24.44° C | 33% | 1015.5 hPa | 0 mm | - | 791 W/m² | - |
| 1777655353 | 25° C | 32% | 1015.8 hPa | 0 mm | - | 815 W/m² | - |
| 1777655050 | 24.44° C | 34% | 1015.6 hPa | 0 mm | - | 814 W/m² | - |
| 1777654748 | 24.44° C | 35% | 1015.6 hPa | 0 mm | - | 821 W/m² | - |
| 1777654446 | 24.44° C | 35% | 1015.5 hPa | 0 mm | - | 747 W/m² | - |
| 1777654143 | 24.44° C | 35% | 1015.5 hPa | 0 mm | - | 765 W/m² | - |
| 1777653841 | 24.44° C | 35% | 1015.5 hPa | 0 mm | - | 601 W/m² | - |
| 1777653537 | 23.89° C | 35% | 1015.5 hPa | 0 mm | - | 635 W/m² | - |
| 1777653233 | 23.89° C | 37% | 1015.7 hPa | 0 mm | - | 718 W/m² | - |
| 1777652930 | 23.89° C | 36% | 1015.5 hPa | 0 mm | - | 619 W/m² | - |
| 1777652627 | 25° C | 36% | 1015.3 hPa | 0 mm | - | 571 W/m² | - |
| 1777652324 | 23.89° C | 38% | 1015.5 hPa | 0 mm | - | 648 W/m² | - |
| 1777652020 | 23.89° C | 38% | 1015.5 hPa | 0 mm | - | 520 W/m² | - |
| 1777651717 | 22.78° C | 39% | 1015.6 hPa | 0 mm | - | 587 W/m² | - |
| 1777651414 | 23.33° C | 39% | 1015.5 hPa | 0 mm | - | 536 W/m² | - |
| 1777651112 | 22.78° C | 39% | 1015.3 hPa | 0 mm | - | 575 W/m² | - |
| 1777650808 | 22.22° C | 41% | 1015.6 hPa | 0 mm | - | 546 W/m² | - |
| 1777650505 | 22.78° C | 41% | 1015.5 hPa | 0 mm | - | 508 W/m² | - |
| 1777650202 | 22.78° C | 41% | 1015.3 hPa | 0 mm | - | 426 W/m² | - |
| 1777649899 | 22.22° C | 41% | 1015.3 hPa | 0 mm | - | 405 W/m² | - |
| 1777649597 | 22.78° C | 41% | 1015.1 hPa | 0 mm | - | 391 W/m² | - |
| 1777649292 | 22.22° C | 41% | 1015.1 hPa | 0 mm | - | 369 W/m² | - |
| 1777648990 | 22.22° C | 41% | 1015 hPa | 0 mm | - | 308 W/m² | - |
* Rain latest hour (hover to see other rain measurements)
** Current wind speed in m/s (hover to see current wind gust speed)